Lapse_Rate
-0.2 -0.4 -0.7 -0.7 -0.6 -0.9 -1.0 -1.2 -1.6 -1.8 -1.8 -2.3 -2.8 -3.2 -3.7 -4.3 -4.3 5.1 6.9 5.9 6.0 1.7 1.7 8.7 8.9 9.0 9.1 8.3 8.4 8.0 6.5 6.5 6.5 6.5 6.5 7.1 6.6 7.5 7.2 7.5 7.7 8.1 8.0 8.5 9.0
-0.3 -0.6 -0.7 -0.7 -0.8 -0.9 -1.2 -1.5 -1.5 -1.7 -2.1 -2.3 -2.5 -3.0 -3.2 -4.0 1.0 5.6 5.3 2.9 2.2 1.7 6.1 8.7 8.3 8.6 7.9 7.8 7.7 6.8 6.5 6.5 6.5 6.5 6.5 6.8 6.9 7.2 7.0 7.1 7.2 7.7 8.5 8.8 9.0
-0.1 -0.4 -0.5 -0.5 -0.7 -1.0 -1.2 -1.3 -1.5 -1.8 -2.3 -2.5 -2.5 -2.6 -3.0 -3.0 6.3 8.3 2.2 2.1 2.0 2.0 8.0 9.2 8.9 8.4 7.3 7.7 7.2 6.8 6.5 6.5 6.7 7.1 7.0 6.7 6.8 7.3 6.4 6.5 7.2 7.2 7.9 8.5 8.6
-0.2 -0.2 -0.4 -0.5 -0.8 -1.2 -1.3 -1.5 -1.6 -2.2 -2.5 -2.6 -2.6 -2.6 -2.6 2.6 6.5 7.4 2.6 1.8 1.2 4.8 9.1 8.7 8.4 7.4 6.6 6.5 7.3 6.5 6.5 6.8 7.0 7.3 6.8 6.5 7.3 6.8 7.0 6.9 8.1 8.2 8.4 8.5 8.3
0.0 -0.2 -0.4 -0.7 -1.0 -1.3 -1.6 -1.7 -2.1 -2.4 -2.7 -2.7 -2.4 -2.5 1.6 8.0 8.0 6.4 1.9 2.0 5.9 5.9 8.8 8.3 7.7 7.4 6.5 6.7 6.9 6.5 6.5 7.1 7.4 7.2 7.2 7.1 6.7 6.8 7.0 7.0 8.3 8.4 8.4 8.3 8.3
-0.1 -0.3 -0.6 -1.0 -1.1 -1.2 -1.6 -2.0 -2.5 -2.5 -2.6 -2.5 -2.1 -2.6 4.3 6.8 9.7 9.7 9.6 7.1 9.4 9.0 8.8 8.6 8.0 8.1 7.2 6.8 6.5 6.9 6.9 6.6 7.0 7.0 7.1 6.7 6.6 7.1 7.3 8.1 8.0 8.1 8.1 8.3 8.3
-0.3 -0.6 -0.9 -1.1 -1.3 -1.6 -1.7 -2.2 -2.6 -2.5 -2.3 -1.8 -1.3 2.1 8.4 8.0 9.8 10.0 9.8 9.5 9.6 9.3 8.6 8.9 8.8 7.9 7.6 6.5 7.5 7.1 6.5 6.5 6.6 6.8 6.6 6.6 6.5 6.5 7.1 7.9 7.6 7.8 8.0 8.1 8.3
-0.5 -0.7 -0.7 -1.2 -1.4 -2.2 -2.3 -2.4 -2.6 -2.3 -1.6 0.0 -0.6 4.9 7.7 9.7 9.7 9.7 9.8 9.4 9.7 9.6 9.2 9.2 9.1 8.2 7.6 7.7 7.0 6.5 6.5 6.5 6.5 6.5 6.8 6.8 6.5 6.5 7.6 7.5 7.3 7.6 7.9 8.0 8.2
-0.8 -1.0 -0.9 -1.2 -1.7 -2.2 -3.0 -2.9 -2.5 -1.7 -0.2 -0.1 3.5 7.3 7.4 5.8 8.7 9.5 9.7 8.8 9.1 9.3 9.2 9.2 8.7 7.6 7.4 6.5 6.5 6.5 6.5 6.5 6.5 6.5 6.5 6.5 6.5 6.5 7.6 7.4 7.1 7.4 7.6 7.9 8.0
-0.8 -1.2 -1.2 -1.5 -2.0 -2.6 -3.4 -3.6 0.4 -0.3 1.7 6.7 8.9 7.9 8.3 7.8 8.9 9.2 9.7 9.4 8.6 8.5 8.1 7.9 7.5 6.5 6.5 6.5 6.5 6.5 6.5 6.5 6.5 6.5 6.5 6.5 6.5 6.5 7.0 7.2 7.1 7.4 7.6 7.7 7.9
-0.8 -1.4 -1.6 -1.9 -2.3 -3.0 -1.5 6.6 7.4 7.5 7.7 7.7 7.7 7.7 8.0 8.9 9.4 8.8 9.3 8.8 8.5 7.8 6.5 7.1 6.5 6.5 6.5 6.5 6.5 6.5 6.5 6.5 6.5 6.5 6.5 6.5 6.5 6.5 5.8 6.9 7.0 7.2 7.4 7.6 7.8
-0.9 -1.3 -1.8 -2.4 -2.8 -3.2 -1.4 8.3 8.6 9.0 7.1 8.5 8.4 8.3 8.7 8.9 7.5 8.3 9.3 7.5 7.1 6.5 6.6 6.5 6.5 6.5 6.5 6.5 6.5 6.5 6.5 6.5 6.5 6.5 6.5 6.5 6.5 6.5 6.5 6.7 6.8 7.2 7.3 7.6 7.9
-0.8 -1.2 -2.0 -2.6 -3.1 0.5 8.8 9.0 10.0 9.8 7.1 7.5 8.3 8.0 8.1 8.6 7.4 7.6 8.4 7.8 6.5 6.5 6.5 6.5 6.5 6.5 6.5 6.5 6.5 6.5 6.5 6.5 6.5 6.5 6.5 6.5 6.5 6.5 6.5 7.0 7.0 7.4 7.6 7.8 7.8
-0.7 -1.3 -1.9 -3.5 0.5 9.5 8.9 9.9 10.2 9.8 6.5 6.5 6.9 7.7 8.2 8.2 6.8 8.5 8.7 7.7 6.6 6.5 6.5 6.5 6.6 6.5 6.5 6.5 6.5 6.5 6.5 6.5 6.5 6.5 6.5 6.5 6.5 6.5 6.5 6.5 6.5 6.5 7.4 7.6 7.8
-0.7 -1.1 -1.9 -3.0 4.0 8.7 9.4 10.2 10.1 9.1 6.5 6.5 6.8 8.9 8.3 7.2 7.3 7.5 8.7 7.8 6.5 6.5 6.5 6.5 6.5 6.5 6.5 6.5 6.5 6.5 6.5 6.5 6.5 6.5 6.5 6.5 6.5 6.5 6.5 6.5 6.5 6.6 7.2 7.6 8.0
-0.8 -1.2 -2.1 6.6 5.0 9.7 10.0 10.1 9.2 6.5 6.5 6.5 6.9 6.6 6.5 7.0 7.0 7.6 7.5 8.1 7.7 6.5 6.5 6.5 7.1 6.5 6.5 6.5 6.5 6.5 6.5 6.5 6.5 6.5 6.5 6.5 6.5 6.5 6.5 6.5 6.5 6.6 7.3 7.5 7.9
-1.3 -1.9 -1.7 5.0 8.8 10.0 10.2 8.9 6.5 6.5 6.5 6.5 6.5 6.5 6.5 6.5 6.5 6.5 6.5 6.5 6.5 6.5 6.5 6.5 6.5 6.5 6.6 6.5 6.5 6.5 6.5 6.5 6.5 6.5 6.5 6.5 6.5 6.5 6.5 6.5 6.5 6.4 7.1 7.5 7.9
-2.1 -2.7 4.7 7.0 9.7 10.1 9.3 6.7 6.5 6.5 6.5 6.5 6.5 6.5 6.5 6.5 6.5 6.5 6.5 6.5 6.5 6.5 6.5 6.5 6.5 6.5 6.5 6.5 6.5 6.5 6.5 6.5 6.5 6.5 6.5 6.5 6.5 6.5 6.5 6.4 7.1 6.9 7.1 7.3 7.9
-2.6 8.0 7.6 9.6 9.6 9.9 8.0 6.5 6.5 6.5 6.5 6.5 6.5 6.5 6.5 6.5 6.5 6.5 6.5 6.5 6.5 6.5 6.5 6.5 6.5 6.5 6.5 6.5 6.5 6.5 6.5 6.5 6.5 6.5 6.5 6.5 6.5 6.5 6.5 6.5 6.7 6.8 6.2 6.0 7.7
1.6 8.2 9.2 9.9 9.9 9.2 6.8 6.5 6.5 6.6 6.5 6.5 6.5 6.5 6.5 6.5 6.5 6.5 6.5 6.5 6.5 6.5 6.6 6.5 6.5 6.5 6.5 6.6 6.5 6.5 6.5 6.5 6.5 6.5 6.5 6.5 6.5 6.5 6.5 6.5 6.5 6.5 5.5 4.1 7.6
4.2 8.0 9.3 10.0 9.9 8.0 6.5 6.5 6.5 7.3 7.2 6.5 6.5 6.5 6.5 6.5 6.5 6.5 6.5 6.5 6.5 6.5 6.6 6.5 6.5 6.5 6.5 6.5 6.5 6.5 6.5 6.5 6.5 6.5 6.5 6.5 6.5 6.5 6.5 6.5 6.5 6.5 7.3 7.8 7.8
8.9 6.5 9.5 9.8 7.0 7.0 6.5 6.5 2.3 6.7 7.3 6.5 6.5 6.5 6.5 6.5 6.5 6.5 6.5 6.5 7.1 6.8 6.5 6.5 6.5 6.5 6.5 6.5 6.5 6.5 6.5 6.5 6.5 6.5 6.5 6.5 6.5 6.5 6.5 6.5 6.7 6.7 6.8 7.3 7.6
8.1 8.0 9.5 9.3 6.5 6.5 6.6 6.5 6.9 6.5 6.5 6.5 6.5 6.5 6.5 6.5 6.5 6.5 6.5 6.9 7.2 6.6 6.5 6.5 6.5 6.5 6.5 6.5 6.5 6.5 6.5 6.5 6.5 6.5 6.5 6.5 6.5 6.5 6.5 6.5 6.7 6.8 7.1 7.2 7.5
8.2 6.5 7.9 8.2 7.8 6.6 6.5 6.5 6.5 7.3 6.8 6.9 6.5 6.7 6.5 6.5 6.5 6.5 6.5 6.6 7.1 7.0 6.3 6.9 6.5 6.5 6.5 6.5 6.5 6.5 6.5 6.5 6.5 6.5 6.5 6.5 6.5 6.5 6.5 6.5 5.6 6.9 7.2 7.3 7.3
8.2 6.8 7.6 6.5 6.7 6.5 6.6 6.5 6.5 6.5 6.9 7.1 6.5 6.5 6.5 6.5 6.5 6.5 6.5 6.5 6.7 6.3 6.6 6.5 6.5 6.5 6.5 6.5 6.5 6.5 6.5 6.5 6.5 6.5 6.5 6.5 6.5 6.5 6.5 6.5 6.6 7.1 7.2 7.2 7.3
7.7 7.3 7.9 7.1 7.2 6.6 6.5 6.5 6.5 6.5 6.5 6.5 6.5 6.5 6.5 6.5 6.5 6.5 6.5 6.5 6.5 6.5 6.5 6.5 6.5 6.5 6.5 6.5 6.5 6.5 6.5 6.5 6.5 6.5 6.5 6.5 6.5 6.5 6.7 7.1 6.9 7.0 7.2 7.1 7.3
9.0 9.1 8.1 5.3 6.7 6.5 6.5 6.5 6.5 6.7 7.0 7.1 6.7 6.5 6.5 6.6 7.2 7.4 7.6 7.3 6.8 6.5 6.5 6.5 6.5 6.5 6.5 6.5 6.5 6.5 6.5 6.5 6.5 6.5 6.5 6.5 6.5 6.5 6.5 6.5 6.9 7.1 7.3 7.3 7.5
Wind_Speed
23 23 23 23 22 22 22 21 22 22 21 22 24 25 25 24 25 12 10 2 4 16 7 10 15 18 14 14 16 2 5 9 5 1 19 20 20 13 3 13 10 18 22 23 23
24 24 25 25 24 23 23 23 22 22 23 22 22 23 22 22 14 15 2 5 9 11 9 15 15 14 12 13 9 6 5 7 13 8 7 16 20 18 12 15 13 23 25 24 23
24 25 26 27 27 26 25 23 23 23 23 22 21 22 21 18 11 4 4 8 9 12 16 18 14 14 14 14 12 6 5 12 20 12 5 17 11 22 7 18 17 25 25 23 21
24 24 25 26 27 28 28 26 25 25 23 21 21 20 20 8 5 6 3 5 7 11 15 18 15 16 15 14 13 7 9 19 26 12 4 5 15 13 6 18 23 26 24 23 21
25 25 25 25 26 27 29 29 28 26 24 22 19 16 10 8 10 9 9 6 8 11 16 17 16 15 16 16 14 8 10 15 28 4 10 3 4 22 19 11 23 24 23 22 20
25 26 27 27 26 26 27 28 28 26 25 21 14 7 6 13 1 6 7 6 8 12 14 16 14 13 17 17 15 6 19 17 16 7 4 8 2 18 22 23 21 22 23 21 19
26 27 27 28 27 28 27 28 28 27 23 18 10 5 11 16 1 3 6 9 12 13 15 12 15 14 13 16 13 15 11 12 8 9 8 22 14 19 17 20 18 20 21 20 18
26 27 28 29 28 29 28 28 27 24 19 11 5 8 7 4 7 7 9 11 13 9 15 12 13 15 15 14 18 11 15 13 16 13 10 10 9 19 18 20 18 19 19 19 19
28 28 28 29 30 29 31 30 26 22 14 6 6 9 11 4 8 12 12 12 11 12 14 7 12 14 12 14 13 13 13 17 17 17 13 12 19 15 18 19 17 18 18 18 18
28 29 30 31 31 31 31 33 13 10 8 10 10 9 8 8 7 1 9 14 11 11 12 9 10 13 14 14 14 15 17 17 17 13 17 17 15 11 18 21 19 16 17 17 18
29 30 31 31 32 30 16 5 4 6 11 13 4 11 2 3 2 9 10 10 15 13 16 15 12 14 19 20 18 21 17 20 14 10 12 11 18 13 16 12 20 20 16 17 18
29 31 32 32 32 30 11 7 8 7 9 14 8 8 9 3 7 12 14 12 15 16 17 15 18 18 18 19 20 22 22 19 6 10 9 16 19 14 30 21 17 22 20 19 19
31 31 32 32 31 13 8 7 8 9 7 13 11 10 6 9 11 12 12 16 15 17 18 20 19 19 19 18 20 21 22 16 10 10 9 7 15 14 10 17 21 22 21 21 20
31 32 31 34 8 7 1 7 8 6 5 13 11 6 7 8 9 4 12 14 14 17 20 20 21 21 20 19 19 19 21 21 16 12 10 10 7 3 6 15 13 13 21 20 20
31 31 32 15 12 6 9 9 8 5 5 13 12 5 3 10 8 13 7 11 13 16 15 20 21 23 14 21 16 17 17 21 22 15 13 21 13 18 16 18 29 13 21 21 21
31 29 29 6 7 7 10 8 6 5 4 5 4 8 12 13 8 6 8 11 11 17 16 19 18 21 16 14 17 12 19 20 21 17 14 20 17 9 15 20 15 21 27 22 22
32 30 17 12 7 12 8 7 6 8 4 5 5 4 13 13 10 9 12 13 12 9 15 17 22 17 19 16 15 16 17 12 13 14 16 19 20 12 13 14 23 13 25 21 22
36 32 9 10 16 9 7 8 10 11 4 6 4 8 11 5 10 10 12 12 15 14 11 13 15 22 13 18 17 18 19 13 18 15 16 19 18 16 18 13 22 5 12 11 23
41 7 7 12 13 5 7 8 5 11 9 7 11 10 12 2 6 7 9 6 4 0 10 9 15 18 22 15 19 18 18 21 19 17 16 18 16 12 19 13 11 14 9 17 21
8 10 7 2 5 6 8 15 3 7 8 6 13 4 14 12 12 10 12 7 2 2 7 14 12 17 23 19 21 22 14 18 15 19 16 17 18 9 18 18 16 13 5 18 16
4 5 6 1 4 6 9 5 4 7 9 6 12 9 10 14 3 13 13 9 3 5 9 13 14 18 17 18 21 17 18 16 19 17 14 14 9 7 14 16 25 26 27 33 22
7 5 5 3 7 8 3 6 3 4 1 3 5 9 11 11 8 13 6 9 5 6 9 11 12 14 22 10 18 17 20 19 12 18 15 15 2 9 7 8 14 7 13 12 4
5 9 5 4 5 8 8 2 5 8 4 6 5 2 9 10 5 14 6 9 8 6 7 11 7 11 15 14 17 20 21 20 17 16 19 14 3 6 15 11 28 6 13 11 9
5 3 4 3 3 7 10 7 3 5 7 6 11 6 10 8 6 8 9 4 3 7 9 5 9 14 11 15 12 20 22 21 21 13 16 18 16 12 10 19 16 12 11 10 8
4 5 5 6 7 9 6 8 7 3 3 5 5 4 10 9 12 8 11 4 5 5 7 5 13 17 20 18 15 15 21 26 21 21 18 17 14 16 18 19 9 6 10 11 12
5 5 5 2 4 7 4 8 7 6 4 6 4 10 13 6 12 13 15 2 8 8 9 11 13 14 16 14 18 14 13 19 20 18 20 21 10 13 16 18 12 7 11 12 10
4 4 4 3 5 6 7 5 4 3 5 4 7 7 9 12 8 9 16 13 10 6 8 12 10 10 15 14 15 15 16 12 15 20 18 16 8 14 17 12 16 9 11 12 12
Wind_Direction
345 343 341 339 338 336 334 333 330 329 326 322 318 314 316 322 313 277 262 19 177 167 206 207 226 241 242 260 257 71 98 301 255 163 130 144 132 99 159 126 125 103 140 140 144
343 341 338 336 335 333 331 328 326 325 322 320 316 312 315 324 303 272 197 122 153 176 213 220 220 228 242 250 242 86 142 235 295 99 264 137 132 137 170 131 120 115 126 138 146
341 339 337 334 333 330 328 326 324 321 319 317 314 310 314 319 285 177 154 157 184 198 230 237 242 233 245 252 249 134 248 256 258 131 337 111 134 96 315 148 138 134 141 149 150
338 337 335 332 330 327 325 323 322 318 315 312 309 308 312 276 294 94 142 146 171 215 226 252 238 244 246 250 246 123 200 258 275 105 103 265 149 121 152 124 138 141 148 153 163
334 332 331 330 327 324 322 320 318 315 311 308 306 309 304 235 258 124 142 139 175 199 213 235 228 241 246 251 251 168 180 254 263 147 117 38 191 123 117 107 131 141 152 158 173
331 329 326 325 324 321 319 316 314 311 308 303 304 299 247 257 65 121 183 175 206 203 224 242 237 243 260 255 281 282 154 254 247 144 190 116 182 121 136 133 135 149 158 166 175
329 326 324 321 323 318 318 313 312 309 303 296 289 244 262 246 334 153 247 212 217 208 236 241 245 247 245 274 269 269 267 255 245 237 179 135 231 112 120 126 145 159 164 170 175
328 325 322 320 320 318 315 311 309 304 296 294 263 225 262 32 273 215 244 232 222 237 252 239 239 260 263 273 262 254 244 257 221 206 205 217 135 132 139 145 157 163 170 174 174
326 324 322 321 318 317 314 307 302 291 277 255 222 227 254 132 216 231 214 234 210 229 232 305 274 236 247 251 254 243 240 223 249 196 198 192 147 173 169 144 158 161 172 179 175
325 324 323 321 318 317 317 294 281 298 229 228 259 253 265 235 154 280 206 216 218 213 217 216 237 228 231 223 228 230 224 234 227 193 216 187 107 146 209 151 153 164 171 184 182
326 325 324 321 318 317 327 311 230 199 230 258 176 243 249 185 145 228 235 212 231 205 213 208 220 216 224 228 231 254 228 240 234 182 202 226 114 78 298 181 161 154 173 186 189
326 324 323 321 317 313 289 300 31 331 298 256 246 267 274 277 260 226 202 202 215 212 210 215 229 231 225 230 236 245 259 249 167 322 234 128 137 144 229 251 164 158 165 185 188
326 325 324 324 318 300 278 10 319 319 266 241 207 231 174 199 236 189 191 209 208 221 212 224 221 236 243 227 235 227 249 254 196 189 243 90 169 181 290 274 181 163 164 175 187
325 324 326 327 305 338 278 356 318 328 275 184 191 185 184 230 228 261 186 225 238 224 227 230 240 213 225 244 227 241 226 252 243 195 216 125 232 63 132 317 306 202 162 173 180
323 324 325 328 307 331 342 317 330 262 275 137 149 108 149 228 108 190 238 251 256 234 237 229 224 241 234 222 237 243 246 234 260 218 225 184 235 193 164 204 249 256 173 173 172
320 321 328 271 223 328 327 322 267 236 257 135 141 208 207 217 217 130 204 231 269 260 239 248 226 230 231 244 252 229 255 260 234 254 244 230 251 158 185 190 226 258 261 172 170
317 314 314 305 301 331 319 274 241 251 89 150 213 185 231 205 209 214 182 201 226 220 243 222 247 217 232 240 226 225 225 231 223 224 243 243 216 238 153 190 180 243 251 177 167
316 310 258 239 281 313 295 256 262 299 51 41 308 283 273 205 247 202 228 218 214 258 280 220 214 238 205 233 236 218 228 226 221 219 231 246 257 223 147 178 210 230 261 227 172
315 251 234 223 243 282 277 249 319 8 5 3 315 264 230 150 274 224 240 253 59 101 278 287 248 207 240 210 244 236 227 241 251 221 231 228 225 253 144 182 198 206 317 304 179
316 290 237 328 250 261 262 261 47 21 338 305 282 300 279 197 194 244 217 74 63 29 324 293 316 279 210 214 222 249 225 233 244 246 245 234 223 204 164 177 178 118 23 329 202
260 246 100 262 238 244 250 41 38 70 342 335 327 316 296 309 331 257 232 94 91 324 320 290 272 274 257 197 217 223 244 233 242 241 245 249 242 273 167 172 176 183 191 178 193
284 273 98 268 251 232 2 36 343 1 70 313 299 300 311 331 279 269 38 74 37 350 293 267 277 260 269 198 225 229 225 237 229 237 250 262 63 0 63 2 330 149 62 41 239
281 302 120 257 283 324 94 136 333 344 14 336 314 307 350 301 290 283 27 75 27 338 23 340 235 251 258 265 216 228 242 225 244 237 240 256 111 126 130 82 323 109 59 34 358
278 276 167 195 323 312 339 279 143 107 305 337 315 351 301 273 255 288 279 104 41 294 4 300 273 274 255 239 317 209 229 240 235 233 241 238 135 126 119 106 261 39 55 36 13
252 35 5 346 25 329 351 348 308 149 51 304 287 252 291 305 281 232 258 194 185 174 253 247 269 276 280 303 300 292 213 225 232 233 239 239 175 163 171 149 93 50 47 50 33
318 349 350 8 339 282 124 80 311 56 5 348 330 348 315 338 351 343 342 227 271 180 240 256 265 281 284 292 284 275 280 223 235 229 241 256 250 128 125 115 102 30 63 54 32
20 259 275 140 228 266 60 63 88 345 83 32 322 316 297 8 335 324 312 318 309 329 298 294 276 256 264 260 258 257 253 259 237 237 234 240 79 61 61 50 74 63 34 45 32